| time (UTC) | temp F | wind direction | speed knots | gust knots | rain 1hr in | rain 24hr in | rain mn in | humidity % | barometer mb |
| 20260906215827 | 74 | 0 | 0.0 | 4.3 | 0.00 | 0.00 | 0.00 | 85 | 1016.2 |
| 20260906215327 | 74 | 0 | 0.0 | 4.3 | 0.00 | 0.00 | 0.00 | 83 | 1016.1 |
| 20260906214827 | 75 | 0 | 0.0 | 5.2 | 0.00 | 0.00 | 0.00 | 81 | 1016.3 |
| 20260906214327 | 75 | 339 | 1.7 | 5.2 | 0.00 | 0.00 | 0.00 | 80 | 1016.1 |
| 20260906213827 | 76 | 0 | 0.0 | 7.0 | 0.00 | 0.00 | 0.00 | 79 | 1016.3 |
| 20260906213327 | 76 | 0 | 0.0 | 7.0 | 0.00 | 0.00 | 0.00 | 78 | 1016.1 |
| 20260906212827 | 76 | 0 | 0.0 | 4.3 | 0.00 | 0.00 | 0.00 | 78 | 1016.2 |
| 20260906212327 | 77 | 334 | 0.9 | 4.3 | 0.00 | 0.00 | 0.00 | 76 | 1016.1 |
| 20260906211826 | 77 | 335 | 1.7 | 3.5 | 0.00 | 0.00 | 0.00 | 75 | 1016.0 |
| 20260906211327 | 78 | 0 | 0.0 | 3.5 | 0.00 | 0.00 | 0.00 | 73 | 1016.1 |
| 20260906210827 | 78 | 335 | 0.9 | 3.5 | 0.00 | 0.00 | 0.00 | 75 | 1016.0 |
| 20260906210327 | 78 | 0 | 0.0 | 2.6 | 0.00 | 0.00 | 0.00 | 74 | 1016.0 |
| 20260906205827 | 78 | 0 | 0.0 | 4.3 | 0.00 | 0.00 | 0.00 | 72 | 1016.0 |
| 20260906205327 | 79 | 0 | 0.0 | 5.2 | 0.00 | 0.00 | 0.00 | 73 | 1015.9 |
| 20260906204827 | 79 | 335 | 0.9 | 7.0 | 0.00 | 0.00 | 0.00 | 74 | 1016.0 |
| 20260906204327 | 78 | 335 | 0.9 | 7.0 | 0.00 | 0.00 | 0.00 | 76 | 1016.1 |
| 20260906203827 | 77 | 335 | 1.7 | 5.2 | 0.00 | 0.00 | 0.00 | 76 | 1016.0 |
| 20260906203326 | 77 | 335 | 2.6 | 5.2 | 0.00 | 0.00 | 0.00 | 74 | 1016.1 |
| 20260906202827 | 77 | 335 | 2.6 | 4.3 | 0.00 | 0.00 | 0.00 | 76 | 1016.0 |
| 20260906202328 | 77 | 0 | 0.0 | 4.3 | 0.00 | 0.00 | 0.00 | 77 | 1016.0 |
| 20260906201827 | 77 | 335 | 0.9 | 4.3 | 0.00 | 0.00 | 0.00 | 76 | 1016.0 |
| 20260906201327 | 77 | 0 | 0.0 | 5.2 | 0.00 | 0.00 | 0.00 | 76 | 1016.1 |
| 20260906200829 | 77 | 335 | 0.9 | 5.2 | 0.00 | 0.00 | 0.00 | 75 | 1016.0 |
| 20260906200326 | 77 | 336 | 1.7 | 5.2 | 0.00 | 0.00 | 0.00 | 77 | 1016.0 |
| 20260906195826 | 77 | 336 | 1.7 | 5.2 | 0.00 | 0.00 | 0.00 | 76 | 1015.9 |
| 20260906195326 | 77 | 336 | 0.9 | 5.2 | 0.00 | 0.00 | 0.00 | 76 | 1016.1 |
| 20260906194826 | 77 | 336 | 2.6 | 7.0 | 0.00 | 0.00 | 0.00 | 76 | 1016.1 |
| 20260906194327 | 78 | 336 | 2.6 | 7.0 | 0.00 | 0.00 | 0.00 | 75 | 1016.1 |
| 20260906193827 | 78 | 336 | 1.7 | 7.0 | 0.00 | 0.00 | 0.00 | 75 | 1016.1 |
| 20260906193327 | 78 | 336 | 2.6 | 7.0 | 0.00 | 0.00 | 0.00 | 75 | 1016.1 |
| 20260906192827 | 78 | 337 | 0.9 | 4.3 | 0.00 | 0.00 | 0.00 | 77 | 1016.2 |
| 20260906192327 | 78 | 337 | 1.7 | 4.3 | 0.00 | 0.00 | 0.00 | 76 | 1016.3 |
| 20260906191826 | 78 | 337 | 0.9 | 5.2 | 0.00 | 0.00 | 0.00 | 77 | 1016.4 |
| 20260906191327 | 78 | 337 | 1.7 | 5.2 | 0.00 | 0.00 | 0.00 | 76 | 1016.5 |
| 20260906190826 | 78 | 337 | 0.9 | 3.5 | 0.00 | 0.00 | 0.00 | 78 | 1016.6 |
| 20260906190326 | 78 | 337 | 0.9 | 3.5 | 0.00 | 0.00 | 0.00 | 76 | 1016.6 |
| 20260906185827 | 78 | 0 | 0.0 | 3.5 | 0.00 | 0.00 | 0.00 | 76 | 1016.6 |
| 20260906185327 | 78 | 0 | 0.0 | 3.5 | 0.00 | 0.00 | 0.00 | 75 | 1016.6 |
| 20260906184826 | 78 | 337 | 0.9 | 5.2 | 0.00 | 0.00 | 0.00 | 76 | 1016.7 |
| 20260906184327 | 78 | 337 | 1.7 | 5.2 | 0.00 | 0.00 | 0.00 | 74 | 1016.7 |
| 20260906183827 | 78 | 0 | 0.0 | 2.6 | 0.00 | 0.00 | 0.00 | 76 | 1016.9 |
| 20260906183326 | 78 | 0 | 0.0 | 0.0 | 0.00 | 0.00 | 0.00 | 77 | 1017.0 |
| 20260906182826 | 78 | 0 | 0.0 | 1.7 | 0.00 | 0.00 | 0.00 | 78 | 1017.0 |
| 20260906182326 | 77 | 0 | 0.0 | 2.6 | 0.00 | 0.00 | 0.00 | 78 | 1017.0 |
| 20260906181826 | 77 | 0 | 0.0 | 4.3 | 0.00 | 0.00 | 0.00 | 80 | 1017.1 |
| 20260906181327 | 76 | 337 | 0.9 | 4.3 | 0.00 | 0.00 | 0.00 | 80 | 1017.1 |
| 20260906180814 | 76 | 337 | 1.7 | 4.3 | 0.00 | 0.00 | 0.00 | 81 | 1017.0 |
| 20260906180314 | 76 | 337 | 1.7 | 3.5 | 0.00 | 0.00 | 0.00 | 80 | 1017.1 |
| 20260906175757 | 76 | 0 | 0.0 | 4.3 | 0.00 | 0.00 | 0.00 | 82 | 1017.1 |
| 20260906175259 | 76 | 337 | 0.9 | 4.3 | 0.00 | 0.00 | 0.00 | 80 | 1017.3 |
| 20260906174757 | 77 | 337 | 1.7 | 4.3 | 0.00 | 0.00 | 0.00 | 79 | 1017.2 |
| 20260906174259 | 77 | 0 | 0.0 | 3.5 | 0.00 | 0.00 | 0.00 | 80 | 1017.3 |
| 20260906173757 | 77 | 0 | 0.0 | 3.5 | 0.00 | 0.00 | 0.00 | 80 | 1017.4 |
| 20260906173257 | 76 | 337 | 1.7 | 2.6 | 0.00 | 0.00 | 0.00 | 82 | 1017.4 |
| 20260906172757 | 76 | 0 | 0.0 | 5.2 | 0.00 | 0.00 | 0.00 | 81 | 1017.2 |
| 20260906172259 | 76 | 0 | 0.0 | 5.2 | 0.00 | 0.00 | 0.00 | 81 | 1017.4 |
| 20260906171757 | 75 | 0 | 0.0 | 2.6 | 0.00 | 0.00 | 0.00 | 82 | 1017.4 |
| 20260906171259 | 76 | 0 | 0.0 | 0.9 | 0.00 | 0.00 | 0.00 | 82 | 1017.5 |
| 20260906170757 | 76 | 0 | 0.0 | 0.9 | 0.00 | 0.00 | 0.00 | 83 | 1017.5 |
| 20260906170257 | 75 | 0 | 0.0 | 0.0 | 0.00 | 0.00 | 0.00 | 83 | 1017.5 |
| 20260906165757 | 75 | 0 | 0.0 | 2.6 | 0.00 | 0.00 | 0.00 | 84 | 1017.5 |
| 20260906165257 | 74 | 0 | 0.0 | 2.6 | 0.00 | 0.00 | 0.00 | 83 | 1017.4 |
| 20260906164757 | 75 | 0 | 0.0 | 2.6 | 0.00 | 0.00 | 0.00 | 83 | 1017.4 |
| 20260906164403 | 74 | 0 | 0.0 | 0.0 | 0.00 | 0.00 | 0.00 | 85 | 1017.4 |
| 20260906164259 | 74 | 0 | 0.0 | 0.0 | 0.00 | 0.00 | 0.00 | 85 | 1017.4 |
| 20260906163803 | 73 | 0 | 0.0 | 0.0 | 0.00 | 0.00 | 0.00 | 88 | 1017.6 |
| 20260906163718 | 73 | 0 | 0.0 | 0.0 | 0.00 | 0.00 | 0.00 | 88 | 1017.6 |
| 20260906163153 | 73 | 0 | 0.0 | 0.0 | 0.00 | 0.00 | 0.00 | 88 | 1017.7 |
| 20260906162606 | 73 | 0 | 0.0 | 0.0 | 0.00 | 0.00 | 0.00 | 87 | 1017.8 |
| 20260906161605 | 73 | 0 | 0.0 | 2.6 | 0.00 | 0.00 | 0.00 | 87 | 1017.9 |
| 20260906161106 | 73 | 0 | 0.0 | 0.0 | 0.00 | 0.00 | 0.00 | 88 | 1017.8 |
| 20260906160606 | 73 | 0 | 0.0 | 0.0 | 0.00 | 0.00 | 0.00 | 88 | 1017.6 |
| 20260906160107 | 73 | 0 | 0.0 | 0.0 | 0.00 | 0.00 | 0.00 | 88 | 1017.6 |
| 20260906155606 | 73 | 0 | 0.0 | 0.0 | 0.00 | 0.00 | 0.00 | 89 | 1017.6 |
| 20260906155106 | 73 | 0 | 0.0 | 0.0 | 0.00 | 0.00 | 0.00 | 89 | 1017.6 |
| 20260906154606 | 72 | 0 | 0.0 | 0.0 | 0.00 | 0.00 | 0.00 | 89 | 1017.6 |
| 20260906154106 | 72 | 0 | 0.0 | 0.0 | 0.00 | 0.00 | 0.00 | 90 | 1017.6 |
| 20260906153606 | 71 | 0 | 0.0 | 0.0 | 0.00 | 0.00 | 0.00 | 90 | 1017.6 |
| 20260906153106 | 71 | 0 | 0.0 | 0.0 | 0.00 | 0.00 | 0.00 | 90 | 1017.6 |
| 20260906152606 | 72 | 0 | 0.0 | 2.6 | 0.00 | 0.00 | 0.00 | 89 | 1017.7 |
| 20260906152107 | 72 | 0 | 0.0 | 2.6 | 0.00 | 0.00 | 0.00 | 89 | 1017.6 |
| 20260906151607 | 72 | 0 | 0.0 | 0.9 | 0.00 | 0.00 | 0.00 | 89 | 1017.6 |
| 20260906151106 | 72 | 0 | 0.0 | 0.9 | 0.00 | 0.00 | 0.00 | 90 | 1017.6 |
| 20260906150606 | 71 | 0 | 0.0 | 0.0 | 0.00 | 0.00 | 0.00 | 92 | 1017.6 |
| 20260906150106 | 71 | 0 | 0.0 | 0.9 | 0.00 | 0.00 | 0.00 | 93 | 1017.5 |
| 20260906145606 | 70 | 0 | 0.0 | 2.6 | 0.00 | 0.00 | 0.00 | 93 | 1017.5 |
| 20260906145108 | 70 | 0 | 0.0 | 2.6 | 0.00 | 0.00 | 0.00 | 92 | 1017.5 |
| 20260906144606 | 71 | 0 | 0.0 | 0.0 | 0.00 | 0.00 | 0.00 | 93 | 1017.4 |
| 20260906144106 | 71 | 0 | 0.0 | 0.0 | 0.00 | 0.00 | 0.00 | 93 | 1017.5 |
| 20260906143606 | 71 | 0 | 0.0 | 0.0 | 0.00 | 0.00 | 0.00 | 92 | 1017.7 |
| 20260906142927 | 71 | 0 | 0.0 | 2.6 | 0.00 | 0.00 | 0.00 | 92 | 1017.6 |
| 20260906142436 | 71 | 0 | 0.0 | 2.6 | 0.00 | 0.00 | 0.00 | 92 | 1017.4 |
| 20260906141928 | 71 | 0 | 0.0 | 1.7 | 0.00 | 0.00 | 0.00 | 94 | 1017.4 |
| 20260906141428 | 71 | 0 | 0.0 | 0.0 | 0.00 | 0.00 | 0.00 | 94 | 1017.2 |
| 20260906141016 | 70 | 0 | 0.0 | 2.6 | 0.00 | 0.00 | 0.00 | 95 | 1017.3 |
| 20260906140928 | 70 | 0 | 0.0 | 2.6 | 0.00 | 0.00 | 0.00 | 95 | 1017.3 |
| 20260906140430 | 70 | 0 | 0.0 | 2.6 | 0.00 | 0.00 | 0.00 | 96 | 1017.4 |
| 20260906135900 | 70 | 0 | 0.0 | 0.9 | 0.00 | 0.00 | 0.00 | 97 | 1017.2 |
| 20260906135205 | 70 | 0 | 0.0 | 3.5 | 0.00 | 0.00 | 0.00 | 97 | 1017.2 |
| 20260906134705 | 70 | 0 | 0.0 | 4.3 | 0.00 | 0.00 | 0.00 | 97 | 1017.2 |
| 20260906134205 | 70 | 0 | 0.0 | 4.3 | 0.00 | 0.00 | 0.00 | 98 | 1017.1 |
| 20260906133705 | 70 | 0 | 0.0 | 0.0 | 0.00 | 0.00 | 0.00 | 98 | 1017.1 |
| 20260906133205 | 69 | 0 | 0.0 | 2.6 | 0.00 | 0.00 | 0.00 | 98 | 1017.1 |
| 20260906132705 | 69 | 0 | 0.0 | 2.6 | 0.00 | 0.00 | 0.00 | 99 | 1017.0 |
| 20260906132205 | 69 | 0 | 0.0 | 0.9 | 0.00 | 0.00 | 0.00 | 99 | 1016.8 |
| 20260906131705 | 69 | 0 | 0.0 | 0.9 | 0.00 | 0.00 | 0.00 | 99 | 1016.7 |
| 20260906131205 | 69 | 0 | 0.0 | 0.9 | 0.00 | 0.00 | 0.00 | 99 | 1016.7 |
| 20260906130705 | 68 | 0 | 0.0 | 0.9 | 0.00 | 0.00 | 0.00 | 98 | 1016.8 |
| 20260906130205 | 68 | 0 | 0.0 | 3.5 | 0.00 | 0.00 | 0.00 | 98 | 1016.6 |
| 20260906125705 | 68 | 0 | 0.0 | 3.5 | 0.00 | 0.00 | 0.00 | 98 | 1016.8 |
| 20260906125206 | 68 | 0 | 0.0 | 1.7 | 0.00 | 0.00 | 0.00 | 98 | 1016.6 |
| 20260906124706 | 69 | 0 | 0.0 | 2.6 | 0.00 | 0.00 | 0.00 | 98 | 1016.6 |
| 20260906124205 | 69 | 0 | 0.0 | 2.6 | 0.00 | 0.00 | 0.00 | 98 | 1016.6 |
| 20260906123705 | 69 | 0 | 0.0 | 0.9 | 0.00 | 0.00 | 0.00 | 98 | 1016.5 |
| 20260906123208 | 69 | 0 | 0.0 | 1.7 | 0.00 | 0.00 | 0.00 | 98 | 1016.4 |
| 20260906122707 | 69 | 0 | 0.0 | 1.7 | 0.00 | 0.00 | 0.00 | 99 | 1016.6 |
| 20260906122205 | 69 | 0 | 0.0 | 3.5 | 0.00 | 0.00 | 0.00 | 99 | 1016.6 |
| 20260906121705 | 69 | 337 | 0.9 | 3.5 | 0.00 | 0.00 | 0.00 | 99 | 1016.4 |
| 20260906121205 | 69 | 0 | 0.0 | 0.0 | 0.00 | 0.00 | 0.00 | 99 | 1016.4 |
| 20260906120707 | 68 | 0 | 0.0 | 2.6 | 0.00 | 0.00 | 0.00 | 99 | 1016.4 |
| 20260906120205 | 68 | 0 | 0.0 | 2.6 | 0.00 | 0.00 | 0.00 | 99 | 1016.5 |
| 20260906115705 | 68 | 0 | 0.0 | 0.9 | 0.00 | 0.00 | 0.00 | 99 | 1016.5 |
| 20260906115205 | 68 | 0 | 0.0 | 1.7 | 0.00 | 0.00 | 0.00 | 99 | 1016.2 |
| 20260906114705 | 68 | 0 | 0.0 | 2.6 | 0.00 | 0.00 | 0.00 | 99 | 1016.3 |
| 20260906114205 | 68 | 0 | 0.0 | 2.6 | 0.00 | 0.00 | 0.00 | 99 | 1016.3 |
| 20260906113622 | 68 | 0 | 0.0 | 0.0 | 0.00 | 0.00 | 0.00 | 99 | 1016.4 |
| 20260906113035 | 68 | 0 | 0.0 | 3.5 | 0.00 | 0.00 | 0.00 | 99 | 1016.2 |
| 20260906112059 | 68 | 337 | 0.9 | 7.0 | 0.00 | 0.00 | 0.00 | 99 | 1015.9 |
| 20260906111600 | 68 | 337 | 0.9 | 7.0 | 0.00 | 0.00 | 0.00 | 99 | 1016.7 |
| 20260906111059 | 68 | 337 | 3.5 | 7.0 | 0.00 | 0.00 | 0.00 | 99 | 1016.6 |
| 20260906110559 | 68 | 337 | 0.9 | 4.3 | 0.00 | 0.00 | 0.00 | 99 | 1016.6 |
| 20260906110059 | 69 | 0 | 0.0 | 5.2 | 0.00 | 0.00 | 0.00 | 99 | 1016.5 |
| 20260906105600 | 69 | 337 | 1.7 | 5.2 | 0.00 | 0.00 | 0.00 | 99 | 1016.6 |
| 20260906105100 | 69 | 337 | 1.7 | 5.2 | 0.00 | 0.00 | 0.00 | 99 | 1016.5 |
| 20260906104559 | 69 | 337 | 0.9 | 3.5 | 0.00 | 0.00 | 0.00 | 99 | 1016.4 |
| 20260906104059 | 69 | 0 | 0.0 | 2.6 | 0.00 | 0.00 | 0.00 | 99 | 1016.5 |
| 20260906103559 | 69 | 0 | 0.0 | 0.0 | 0.00 | 0.00 | 0.00 | 99 | 1016.4 |
| 20260906103059 | 69 | 0 | 0.0 | 0.0 | 0.00 | 0.00 | 0.00 | 99 | 1016.4 |
| 20260906102559 | 69 | 0 | 0.0 | 0.0 | 0.00 | 0.00 | 0.00 | 99 | 1016.4 |
| 20260906102059 | 69 | 0 | 0.0 | 0.0 | 0.00 | 0.00 | 0.00 | 99 | 1016.4 |
| 20260906101559 | 69 | 0 | 0.0 | 0.0 | 0.00 | 0.00 | 0.00 | 99 | 1016.5 |
| 20260906101059 | 69 | 0 | 0.0 | 0.0 | 0.00 | 0.00 | 0.00 | 99 | 1016.3 |
| 20260906100559 | 69 | 0 | 0.0 | 0.0 | 0.00 | 0.00 | 0.00 | 99 | 1016.2 |
| 20260906100059 | 69 | 0 | 0.0 | 2.6 | 0.00 | 0.00 | 0.00 | 99 | 1016.1 |
| 20260906095559 | 69 | 0 | 0.0 | 2.6 | 0.00 | 0.00 | 0.00 | 99 | 1016.0 |
| 20260906095059 | 69 | 0 | 0.0 | 2.6 | 0.00 | 0.00 | 0.00 | 99 | 1015.9 |
| 20260906094600 | 69 | 0 | 0.0 | 1.7 | 0.00 | 0.00 | 0.00 | 99 | 1015.8 |
| 20260906094059 | 69 | 0 | 0.0 | 1.7 | 0.00 | 0.00 | 0.00 | 99 | 1015.8 |
| 20260906093559 | 69 | 0 | 0.0 | 0.0 | 0.00 | 0.00 | 0.00 | 99 | 1015.8 |
| 20260906093059 | 69 | 0 | 0.0 | 1.7 | 0.00 | 0.00 | 0.00 | 99 | 1015.8 |
| 20260906092559 | 69 | 0 | 0.0 | 2.6 | 0.00 | 0.00 | 0.00 | 99 | 1015.7 |
| 20260906092059 | 69 | 0 | 0.0 | 4.3 | 0.00 | 0.00 | 0.00 | 99 | 1015.8 |
| 20260906091600 | 69 | 0 | 0.0 | 4.3 | 0.00 | 0.00 | 0.00 | 99 | 1015.8 |
| 20260906091059 | 69 | 0 | 0.0 | 5.2 | 0.00 | 0.00 | 0.00 | 99 | 1015.6 |
| 20260906090559 | 69 | 334 | 0.9 | 5.2 | 0.00 | 0.00 | 0.00 | 99 | 1015.5 |
| 20260906090059 | 69 | 334 | 0.9 | 4.3 | 0.00 | 0.00 | 0.00 | 99 | 1015.5 |
| 20260906085600 | 69 | 334 | 0.9 | 4.3 | 0.00 | 0.00 | 0.00 | 99 | 1015.5 |
| 20260906085100 | 69 | 334 | 0.9 | 5.2 | 0.00 | 0.00 | 0.00 | 99 | 1015.4 |
| 20260906084601 | 69 | 334 | 2.6 | 5.2 | 0.00 | 0.00 | 0.00 | 99 | 1015.2 |
| 20260906084100 | 69 | 334 | 2.6 | 5.2 | 0.00 | 0.00 | 0.00 | 99 | 1015.2 |
| 20260906083559 | 69 | 334 | 2.6 | 5.2 | 0.00 | 0.00 | 0.00 | 99 | 1015.2 |
| 20260906083059 | 69 | 334 | 2.6 | 5.2 | 0.00 | 0.00 | 0.00 | 99 | 1015.0 |
| 20260906082559 | 69 | 334 | 1.7 | 5.2 | 0.00 | 0.00 | 0.00 | 99 | 1015.0 |
| 20260906082059 | 69 | 335 | 2.6 | 5.2 | 0.00 | 0.00 | 0.00 | 99 | 1015.2 |
| 20260906081559 | 69 | 335 | 2.6 | 4.3 | 0.00 | 0.00 | 0.00 | 98 | 1015.2 |
| 20260906081101 | 69 | 335 | 1.7 | 4.3 | 0.00 | 0.00 | 0.00 | 98 | 1015.2 |
| 20260906080602 | 69 | 335 | 2.6 | 4.3 | 0.00 | 0.00 | 0.00 | 98 | 1015.2 |
| 20260906080059 | 69 | 335 | 1.7 | 4.3 | 0.00 | 0.00 | 0.00 | 98 | 1015.1 |
| 20260906075559 | 69 | 335 | 0.9 | 4.3 | 0.00 | 0.00 | 0.00 | 98 | 1015.2 |
| 20260906075059 | 69 | 335 | 0.9 | 3.5 | 0.00 | 0.00 | 0.00 | 98 | 1015.2 |
| 20260906074559 | 69 | 335 | 1.7 | 4.3 | 0.00 | 0.00 | 0.00 | 98 | 1015.2 |
| 20260906074059 | 69 | 335 | 1.7 | 5.2 | 0.00 | 0.00 | 0.00 | 98 | 1015.2 |
| 20260906073559 | 69 | 335 | 2.6 | 5.2 | 0.00 | 0.00 | 0.00 | 98 | 1015.1 |
| 20260906073030 | 69 | 334 | 2.6 | 7.0 | 0.00 | 0.00 | 0.00 | 98 | 1015.1 |
| 20260906072531 | 69 | 334 | 3.5 | 7.0 | 0.00 | 0.00 | 0.00 | 97 | 1015.2 |
| 20260906072032 | 69 | 334 | 3.5 | 7.8 | 0.00 | 0.00 | 0.00 | 97 | 1015.2 |
| 20260906071531 | 69 | 334 | 4.3 | 8.7 | 0.00 | 0.00 | 0.00 | 97 | 1015.4 |
| 20260906071032 | 69 | 333 | 4.3 | 8.7 | 0.00 | 0.00 | 0.00 | 96 | 1015.5 |
| 20260906070532 | 69 | 333 | 3.5 | 7.0 | 0.00 | 0.00 | 0.00 | 95 | 1015.5 |
| 20260906070152 | 70 | 333 | 2.6 | 7.0 | 0.00 | 0.00 | 0.00 | 93 | 1015.4 |
| 20260906070032 | 70 | 333 | 2.6 | 7.0 | 0.00 | 0.00 | 0.00 | 93 | 1015.4 |
| 20260906065534 | 71 | 335 | 3.5 | 5.2 | 0.00 | 0.00 | 0.00 | 90 | 1015.6 |
| 20260906065030 | 71 | 335 | 1.7 | 4.3 | 0.00 | 0.00 | 0.00 | 89 | 1015.6 |
| 20260906064531 | 72 | 335 | 0.9 | 4.3 | 0.00 | 0.00 | 0.00 | 88 | 1015.7 |
| 20260906064030 | 72 | 335 | 0.9 | 4.3 | 0.00 | 0.00 | 0.00 | 88 | 1015.6 |
| 20260906063531 | 71 | 335 | 1.7 | 4.3 | 0.00 | 0.00 | 0.00 | 88 | 1015.8 |
| 20260906063030 | 71 | 335 | 1.7 | 3.5 | 0.00 | 0.00 | 0.00 | 88 | 1015.8 |
| 20260906062530 | 71 | 335 | 0.9 | 3.5 | 0.00 | 0.00 | 0.00 | 88 | 1015.8 |
| 20260906062030 | 72 | 335 | 0.9 | 4.3 | 0.00 | 0.00 | 0.00 | 87 | 1015.8 |
| 20260906061531 | 72 | 335 | 0.9 | 4.3 | 0.00 | 0.00 | 0.00 | 87 | 1015.7 |
| 20260906061030 | 72 | 335 | 1.7 | 3.5 | 0.00 | 0.00 | 0.00 | 86 | 1015.7 |
| 20260906060531 | 73 | 335 | 1.7 | 4.3 | 0.00 | 0.00 | 0.00 | 86 | 1015.7 |
| 20260906060030 | 73 | 335 | 0.9 | 4.3 | 0.00 | 0.00 | 0.00 | 85 | 1015.7 |
| 20260906055530 | 73 | 335 | 0.9 | 4.3 | 0.00 | 0.00 | 0.00 | 85 | 1015.7 |
| 20260906055030 | 73 | 335 | 0.9 | 4.3 | 0.00 | 0.00 | 0.00 | 85 | 1015.7 |
| 20260906054531 | 72 | 335 | 2.6 | 7.0 | 0.00 | 0.00 | 0.00 | 85 | 1015.8 |
| 20260906054031 | 72 | 335 | 3.5 | 7.0 | 0.00 | 0.00 | 0.00 | 85 | 1015.7 |
| 20260906053531 | 73 | 335 | 2.6 | 5.2 | 0.00 | 0.00 | 0.00 | 85 | 1015.8 |
| 20260906053031 | 73 | 335 | 2.6 | 4.3 | 0.00 | 0.00 | 0.00 | 84 | 1015.9 |
| 20260906052531 | 73 | 335 | 2.6 | 5.2 | 0.00 | 0.00 | 0.00 | 84 | 1015.9 |
| 20260906052030 | 73 | 335 | 2.6 | 5.2 | 0.00 | 0.00 | 0.00 | 85 | 1015.9 |
| 20260906051530 | 72 | 335 | 1.7 | 4.3 | 0.00 | 0.00 | 0.00 | 86 | 1016.0 |
| 20260906051030 | 72 | 335 | 2.6 | 5.2 | 0.00 | 0.00 | 0.00 | 85 | 1016.0 |
| 20260906050530 | 72 | 335 | 3.5 | 5.2 | 0.00 | 0.00 | 0.00 | 84 | 1015.9 |
| 20260906050030 | 72 | 335 | 3.5 | 5.2 | 0.00 | 0.00 | 0.00 | 84 | 1015.9 |
| 20260906045532 | 72 | 335 | 3.5 | 5.2 | 0.00 | 0.00 | 0.00 | 83 | 1016.0 |
| 20260906045030 | 72 | 335 | 2.6 | 7.0 | 0.00 | 0.00 | 0.00 | 82 | 1016.1 |
| 20260906044533 | 73 | 335 | 3.5 | 7.0 | 0.00 | 0.00 | 0.00 | 81 | 1016.1 |
| 20260906044030 | 73 | 335 | 2.6 | 7.0 | 0.00 | 0.00 | 0.00 | 81 | 1016.0 |
| 20260906043531 | 73 | 335 | 2.6 | 7.0 | 0.00 | 0.00 | 0.00 | 81 | 1016.0 |
| 20260906043030 | 73 | 335 | 2.6 | 5.2 | 0.00 | 0.00 | 0.00 | 82 | 1016.1 |
| 20260906042454 | 73 | 335 | 3.5 | 5.2 | 0.00 | 0.00 | 0.00 | 83 | 1016.0 |
| 20260906042321 | 73 | 335 | 3.5 | 5.2 | 0.00 | 0.00 | 0.00 | 83 | 1016.0 |
| 20260906041821 | 73 | 335 | 2.6 | 5.2 | 0.00 | 0.00 | 0.00 | 84 | 1016.1 |
| 20260906041321 | 73 | 335 | 1.7 | 3.5 | 0.00 | 0.00 | 0.00 | 84 | 1016.2 |
| 20260906040822 | 73 | 335 | 0.9 | 3.5 | 0.00 | 0.00 | 0.00 | 83 | 1016.3 |
| 20260906040321 | 73 | 335 | 0.9 | 4.3 | 0.00 | 0.00 | 0.00 | 83 | 1016.3 |
| 20260906035821 | 74 | 335 | 0.9 | 8.7 | 0.00 | 0.00 | 0.00 | 82 | 1016.2 |
| 20260906035321 | 74 | 333 | 2.6 | 8.7 | 0.00 | 0.00 | 0.00 | 81 | 1016.2 |
| 20260906034821 | 74 | 333 | 1.7 | 7.8 | 0.00 | 0.00 | 0.00 | 81 | 1016.0 |
| 20260906034321 | 74 | 333 | 2.6 | 7.0 | 0.00 | 0.00 | 0.00 | 81 | 1016.1 |
| 20260906033821 | 74 | 333 | 2.6 | 7.0 | 0.00 | 0.00 | 0.00 | 81 | 1016.1 |
| 20260906033131 | 74 | 334 | 1.7 | 7.8 | 0.00 | 0.00 | 0.00 | 81 | 1016.2 |
| 20260906032630 | 74 | 335 | 1.7 | 7.0 | 0.00 | 0.00 | 0.00 | 81 | 1016.1 |
| 20260906032130 | 74 | 335 | 1.7 | 7.0 | 0.00 | 0.00 | 0.00 | 81 | 1016.2 |
| 20260906031631 | 74 | 335 | 1.7 | 5.2 | 0.00 | 0.00 | 0.00 | 81 | 1016.2 |
| 20260906031132 | 74 | 335 | 0.9 | 5.2 | 0.00 | 0.00 | 0.00 | 81 | 1016.1 |
| 20260906030630 | 75 | 0 | 0.0 | 4.3 | 0.00 | 0.00 | 0.00 | 81 | 1016.1 |
| 20260906030131 | 75 | 0 | 0.0 | 4.3 | 0.00 | 0.00 | 0.00 | 81 | 1016.1 |
| 20260906025630 | 75 | 335 | 0.9 | 5.2 | 0.00 | 0.00 | 0.00 | 81 | 1016.0 |
| 20260906025130 | 75 | 335 | 0.9 | 7.8 | 0.00 | 0.00 | 0.00 | 80 | 1016.1 |
| 20260906024630 | 75 | 334 | 1.7 | 7.8 | 0.00 | 0.00 | 0.00 | 79 | 1016.0 |
| 20260906023740 | 75 | 329 | 1.7 | 7.0 | 0.00 | 0.00 | 0.00 | 80 | 1016.1 |
| 20260906023413 | 75 | 328 | 0.9 | 4.3 | 0.00 | 0.00 | 0.00 | 80 | 1016.2 |
| 20260906023240 | 75 | 328 | 1.7 | 4.3 | 0.00 | 0.00 | 0.00 | 81 | 1016.2 |
| 20260906022743 | 75 | 328 | 0.9 | 4.3 | 0.00 | 0.00 | 0.00 | 80 | 1016.2 |
| 20260906022240 | 75 | 328 | 0.9 | 4.3 | 0.00 | 0.00 | 0.00 | 80 | 1016.3 |
| 20260906021740 | 76 | 0 | 0.0 | 4.3 | 0.00 | 0.00 | 0.00 | 80 | 1016.2 |
| 20260906021240 | 76 | 0 | 0.0 | 2.6 | 0.00 | 0.00 | 0.00 | 79 | 1016.1 |
| 20260906020740 | 76 | 0 | 0.0 | 5.2 | 0.00 | 0.00 | 0.00 | 79 | 1016.0 |
| 20260906020240 | 76 | 329 | 0.9 | 5.2 | 0.00 | 0.00 | 0.00 | 79 | 1015.9 |
| 20260906015740 | 76 | 329 | 0.9 | 4.3 | 0.00 | 0.00 | 0.00 | 79 | 1015.9 |
| 20260906015240 | 76 | 0 | 0.0 | 4.3 | 0.00 | 0.00 | 0.00 | 79 | 1015.9 |
| 20260906014741 | 76 | 329 | 0.9 | 5.2 | 0.00 | 0.00 | 0.00 | 79 | 1015.9 |
| 20260906014240 | 76 | 329 | 0.9 | 5.2 | 0.00 | 0.00 | 0.00 | 79 | 1015.8 |
| 20260906013740 | 76 | 0 | 0.0 | 5.2 | 0.00 | 0.00 | 0.00 | 79 | 1015.9 |
| 20260906013240 | 76 | 0 | 0.0 | 4.3 | 0.00 | 0.00 | 0.00 | 79 | 1016.0 |
| 20260906012823 | 76 | 0 | 0.0 | 4.3 | 0.00 | 0.00 | 0.00 | 79 | 1016.0 |
| 20260906012740 | 76 | 0 | 0.0 | 4.3 | 0.00 | 0.00 | 0.00 | 79 | 1016.0 |
| 20260906012240 | 76 | 331 | 0.9 | 4.3 | 0.00 | 0.00 | 0.00 | 79 | 1015.9 |
| 20260906011740 | 76 | 331 | 0.9 | 5.2 | 0.00 | 0.00 | 0.00 | 79 | 1015.7 |
| 20260906011240 | 76 | 331 | 1.7 | 5.2 | 0.00 | 0.00 | 0.00 | 79 | 1015.6 |
| 20260906010740 | 76 | 331 | 1.7 | 5.2 | 0.00 | 0.00 | 0.00 | 79 | 1015.5 |
| 20260906010240 | 76 | 331 | 1.7 | 3.5 | 0.00 | 0.00 | 0.00 | 79 | 1015.5 |
| 20260906005740 | 76 | 331 | 0.9 | 3.5 | 0.00 | 0.00 | 0.00 | 78 | 1015.4 |
| 20260906005240 | 77 | 331 | 1.7 | 5.2 | 0.00 | 0.00 | 0.00 | 78 | 1015.5 |
| 20260906004740 | 77 | 331 | 1.7 | 5.2 | 0.00 | 0.00 | 0.00 | 78 | 1015.4 |
| 20260906004240 | 77 | 0 | 0.0 | 4.3 | 0.00 | 0.00 | 0.00 | 77 | 1015.5 |
| 20260906003740 | 77 | 0 | 0.0 | 3.5 | 0.00 | 0.00 | 0.00 | 76 | 1015.4 |
| 20260906003240 | 77 | 331 | 0.9 | 3.5 | 0.00 | 0.00 | 0.00 | 76 | 1015.4 |
| 20260906002740 | 77 | 331 | 0.9 | 4.3 | 0.00 | 0.00 | 0.00 | 76 | 1015.3 |
| 20260906002240 | 77 | 331 | 1.7 | 4.3 | 0.00 | 0.00 | 0.00 | 76 | 1015.2 |
| 20260906001742 | 76 | 331 | 0.9 | 3.5 | 0.00 | 0.00 | 0.00 | 76 | 1015.1 |
| 20260906001242 | 76 | 331 | 0.9 | 5.2 | 0.00 | 0.00 | 0.00 | 76 | 1015.1 |
| 20260906000740 | 77 | 0 | 0.0 | 5.2 | 0.00 | 0.00 | 0.00 | 76 | 1015.1 |
| 20260906000241 | 77 | 0 | 0.0 | 2.6 | 0.00 | 0.00 | 0.00 | 75 | 1015.0 |
| 20260905235740 | 77 | 0 | 0.0 | 2.6 | 0.00 | 0.00 | 0.00 | 75 | 1015.0 |
| 20260905235240 | 77 | 0 | 0.0 | 2.6 | 0.00 | 0.00 | 0.00 | 75 | 1014.9 |
| 20260905234741 | 77 | 0 | 0.0 | 2.6 | 0.00 | 0.00 | 0.00 | 74 | 1014.9 |
| 20260905234243 | 77 | 0 | 0.0 | 3.5 | 0.00 | 0.00 | 0.00 | 74 | 1014.9 |
| 20260905233740 | 78 | 331 | 0.9 | 4.3 | 0.00 | 0.00 | 0.00 | 74 | 1014.8 |
| 20260905233240 | 78 | 0 | 0.0 | 4.3 | 0.00 | 0.00 | 0.00 | 73 | 1014.9 |
| 20260905232740 | 78 | 331 | 0.9 | 7.8 | 0.00 | 0.00 | 0.00 | 73 | 1014.8 |
| 20260905232240 | 78 | 0 | 0.0 | 7.8 | 0.00 | 0.00 | 0.00 | 73 | 1014.6 |
| 20260905231739 | 78 | 0 | 0.0 | 7.0 | 0.00 | 0.00 | 0.00 | 73 | 1014.6 |
| 20260905231241 | 78 | 329 | 0.9 | 7.0 | 0.00 | 0.00 | 0.00 | 73 | 1014.5 |
| 20260905230741 | 78 | 0 | 0.0 | 4.3 | 0.00 | 0.00 | 0.00 | 72 | 1014.6 |
| 20260905230241 | 79 | 0 | 0.0 | 3.5 | 0.00 | 0.00 | 0.00 | 72 | 1014.7 |
| 20260905225740 | 79 | 0 | 0.0 | 3.5 | 0.00 | 0.00 | 0.00 | 72 | 1014.7 |
| 20260905225240 | 79 | 0 | 0.0 | 1.7 | 0.00 | 0.00 | 0.00 | 72 | 1014.7 |
| 20260905224740 | 79 | 0 | 0.0 | 2.6 | 0.00 | 0.00 | 0.00 | 72 | 1014.8 |
| 20260905224240 | 79 | 0 | 0.0 | 2.6 | 0.00 | 0.00 | 0.00 | 72 | 1014.8 |
| 20260905223740 | 79 | 0 | 0.0 | 7.8 | 0.00 | 0.00 | 0.00 | 72 | 1014.8 |
| 20260905223240 | 79 | 325 | 0.9 | 7.8 | 0.00 | 0.00 | 0.00 | 72 | 1014.8 |
| 20260905222740 | 79 | 0 | 0.0 | 7.0 | 0.00 | 0.00 | 0.00 | 72 | 1014.8 |
| 20260905222246 | 79 | 324 | 0.9 | 7.0 | 0.00 | 0.00 | 0.00 | 72 | 1014.9 |
| 20260905221740 | 79 | 0 | 0.0 | 7.0 | 0.00 | 0.00 | 0.00 | 72 | 1014.9 |
| 20260905221240 | 79 | 0 | 0.0 | 7.0 | 0.00 | 0.00 | 0.00 | 71 | 1014.9 |
| 20260905220740 | 79 | 0 | 0.0 | 7.0 | 0.00 | 0.00 | 0.00 | 71 | 1015.0 |
| 20260905220240 | 79 | 0 | 0.0 | 7.0 | 0.00 | 0.00 | 0.00 | 70 | 1015.0 |